Location: Pace/Milton
(30.6162°N, 87.1503°W)
Time: 11:50:11
(UTC-06:00)

Envisat - Pass Details

Date: 12 December 2021
Orbit: 764 x 766 km, 98.2° (Epoch: 23 January)

Event Time Altitude Azimuth Distance (km) Brightness Sun altitude
Rises 17:28:15 0° 217° (SW) 3,218 7.4 -8.7°
Reaches altitude 10° 17:32:44 10° 255° (WSW) 2,298 7.1 -9.6°
Maximum altitude 17:33:51 11° 268° (W) 2,253 6.7 -9.8°
Drops below altitude 10° 17:34:58 10° 281° (W) 2,301 6.5 -10.0°
Sets 17:39:29 0° 318° (NW) 3,233 6.5 -10.9°
